Satellite-Ground Cal/Val Site Overpasses Predictions

Prediction of Satellite NPP Overpassing Cal/Val Site: Antarctic Dome C

Ground Cal/Val Site Location: Latitude: -75.10, Longitude: 123.35; Satellite-Ground Site NADIR distance within 100 km.

Table of predicted overpasses for the next 14.0 days since TLE Epoch: 8/18/2017
Interval Starting Time Ending Time Minimum Distance Time Minimum Distance (km)
1 08/19/2017 15:07:45 08/19/2017 15:07:53 08/19/2017 15:07:49 95.69
2 08/20/2017 14:48:45 08/20/2017 14:49:14 08/20/2017 14:48:59 15.58
3 08/22/2017 07:31:37 08/22/2017 07:32:06 08/22/2017 07:31:51 2.50
4 08/25/2017 14:55:06 08/25/2017 14:55:35 08/25/2017 14:55:20 21.32
5 08/26/2017 14:36:25 08/26/2017 14:36:40 08/26/2017 14:36:32 85.60
6 08/27/2017 07:37:57 08/27/2017 07:38:25 08/27/2017 07:38:11 34.09
7 08/28/2017 07:19:13 08/28/2017 07:19:32 08/28/2017 07:19:22 75.95
8 08/30/2017 15:01:29 08/30/2017 15:01:53 08/30/2017 15:01:41 58.61
9 08/31/2017 14:42:39 08/31/2017 14:43:04 08/31/2017 14:42:52 50.43


NCC Satellite Cal/Val Overpasses Prediction Service
